Miscellaneous Local Product
Issued by NWS North Platte, NE

Home | Current Version | Previous Version | Text Only | Print | Product List | Glossary On
Versions: 1 2 3 4 5 6 7 8 9 10 11 12 13 14 15 16 17 18 19 20 21 22 23 24 25 26 27 28 29 30 31 32 33 34 35 36 37 38 39 40 41 42 43 44 45 46 47 48 49 50
000
AXUS43 KLBF 292210
MISLBF


WESTERN AND NORTH CENTRAL NEBRASKA HOURLY WEATHER ROUNDUP
NATIONAL WEATHER SERVICE NORTH PLATTE NE
500 PM CDT FRI JUL 29 2016

NOTE: "FAIR" INDICATES FEW OR NO CLOUDS BELOW 12,000 FEET WITH NO
SIGNIFICANT WEATHER AND/OR OBSTRUCTIONS TO VISIBILITY.

NOTE: STATIONS NOT REPORTING VARIABLES SUCH AS SKY/WEATHER OR
PRESSURE ARE PROVIDED BY RAWS AND APRS NETWORKS AND ARE NOT UNDER
NATIONAL WEATHER SERVICE QUALITY CONTROL.

...OBSERVATIONS IN AND NEAR THE EASTERN PANHANDLE OF NEBRASKA...

CITY           SKY/WX    TMP DP  RH WIND       PRES   REMARKS
PINE RIDGE     CLOUDY    82  57  42 E10       30.02F
CHADRON        LGT RAIN  73  61  65 S22       30.02S
ALLIANCE       CLOUDY    74  61  63 SE14      30.06F
SIDNEY         CLOUDY    79  56  45 SE18      30.11F
$$

...OBSERVATIONS IN NORTHERN NEBRASKA AND FAR SOUTHERN SOUTH DAKOTA...

CITY           SKY/WX    TMP DP  RH WIND       PRES   REMARKS
WINNER         PTSUNNY   81  58  45 SE12      30.04F
VALENTINE      MOSUNNY   80  55  42 SW8       30.05F
THEDFORD       MOSUNNY   80  59  48 S3        30.08R
AINSWORTH      SUNNY     75  62  65 SE8       30.07F
O`NEILL        SUNNY     78  55  45 E5        30.06F
ORD            PTSUNNY   77  60  55 CALM      30.04F
BROKEN BOW     MOSUNNY   77  64  64 NE6       30.06F
VALENTINE NWR    N/A     76  61  59 E7          N/A
BUTTE            N/A     77  57  49 E8          N/A
HALSEY           N/A     80  58  47 E6          N/A
EWING            N/A     78  61  55 CALM        N/A
$$

...OBSERVATIONS IN SOUTHWEST NEBRASKA AND FAR NORTHEAST COLORADO...

CITY           SKY/WX    TMP DP  RH WIND       PRES   REMARKS
WRAY           FAIR      82  59  44 S12G18    30.10F
HOLYOKE        FAIR      81  59  47 SE9       30.09F
IMPERIAL       PTSUNNY   81  58  45 SE8       30.07F
OGALLALA       MOSUNNY   83  56  38 SE5       30.06F
NORTH PLATTE   SUNNY     83  61  47 S3        30.05F
MCCOOK         SUNNY     85  57  38 S6        30.04F
LEXINGTON      MOSUNNY   79  65  62 E6        30.05F
STAPLETON        N/A     79  64  60 CALM        N/A
GOTHENBURG       N/A     80  60  50 E3          N/A
CALLAWAY         N/A     78  66  66 CALM        N/A
$$

...OBSERVATIONS IN CENTRAL LINCOLN COUNTY AREA...

CITY           SKY/WX    TMP DP  RH WIND       PRES   REMARKS
N.P. AIRPORT   SUNNY     83  61  47 S3        30.05F
N.P. DOWNTOWN    N/A     80  61  52 CALM        N/A
N.P. HILLCREST   N/A     82  59  45 CALM        N/A
$$

...SOME OBSERVATIONS FROM AROUND THE REGION...

CITY           SKY/WX    TMP DP  RH WIND       PRES   REMARKS
DENVER         MOSUNNY   87  49  26 VRB3      30.09F
LARAMIE        SUNNY     81  31  16 W9        30.19F
CHEYENNE       CLOUDY    74  51  44 SE26G35   30.12F THUNDER
SCOTTSBLUFF    PTSUNNY   81  61  50 E14       30.04S
RAPID CITY     CLOUDY    71  58  63 S8        30.04F
BISMARCK       MOSUNNY   81  59  47 SE7       30.00F
PIERRE         SUNNY     82  56  40 SE10      29.99F
SIOUX FALLS    MOSUNNY   77  53  43 E7        30.04F
OMAHA          MOSUNNY   83  61  47 N10       30.00F
GRAND ISLAND   PTSUNNY   79  60  52 E6        30.05F
KANSAS CITY    PTSUNNY   82  63  52 N8        29.98F
WICHITA        PTSUNNY   86  66  51 NW7       29.99R
OKLAHOMA CITY  MOSUNNY   87  65  47 NE5       29.98F
DALLAS         PTSUNNY   94  70  45 S15       29.91F HX 100
AMARILLO       SUNNY     89  63  41 S18G24    30.06F HX  90
DODGE CITY     CLOUDY    84  61  45 CALM      30.05F
HAYS           MOSUNNY   88  61  40 NE8       30.02F
GOODLAND       CLOUDY    74  65  73 SE9       30.10F
$$




USA.gov is the U.S. government's official web portal to all federal, state and local government web resources and services.